This demonstration page uses our WeatherBlox Daily Observations layout. Learn more.

Left ArrowRight Arrow

39.29038, -76.61219

Hourly Observations for October 3, 2020

Temp ( °F °C ) Dew Point ( °F °C ) Humidity (%) Winds ( mph kmh ) Pressure ( in mb ) Visibility ( mi km ) Precip ( " mm )
12:54 am 00:54 Clear 50 10 44 6.7 80 80 W 8 13 30.16 1021 10 16 0.00 0.00
1:54 am 01:54 Mostly Clear 50 10 43 6.1 77 77 WNW 6 9 30.16 1021 10 16 0.00 0.00
2:54 am 02:54 Mostly Clear 49 9.4 42 5.6 77 77 WNW 3 6 30.16 1021 10 16 0.00 0.00
3:54 am 03:54 Clear 49 9.4 42 5.6 77 77 NW 3 6 30.17 1022 10 16 0.00 0.00
4:54 am 04:54 Mostly Clear 48 8.9 42 5.6 80 80 WNW 3 6 30.19 1022 10 16 0.00 0.00
5:54 am 05:54 Mostly Clear 47 8.3 42 5.6 83 83 Calm 30.20 1023 10 16 0.00 0.00
6:54 am 06:54 Mostly Clear 44 6.7 41 5 89 89 W 5 7 30.21 1023 10 16 0.00 0.00
7:54 am 07:54 Sunny 48 8.9 43 6.1 83 83 WNW 6 9 30.22 1024 10 16 0.00 0.00
8:54 am 08:54 Sunny 53 11.7 45 7.2 74 74 W 5 7 30.24 1024 10 16 0.00 0.00
9:54 am 09:54 Sunny 59 15 43 6.1 56 56 NW 3 6 30.24 1024 10 16 0.00 0.00
10:54 am 10:54 Sunny 62 16.7 38 3.3 41 41 WNW 9 15 30.25 1024 10 16 0.00 0.00
11:54 am 11:54 Sunny 64 17.8 38 3.3 38 38 WNW 12 19 30.25 1024 10 16 0.00 0.00
12:54 pm 12:54 Sunny 65 18.3 37 2.8 36 36 W 9 15 30.24 1024 10 16 0.00 0.00
1:54 pm 13:54 Mostly Sunny 66 18.9 37 2.8 34 34 WNW 7 11 30.22 1023 10 16 0.00 0.00
2:54 pm 14:54 Mostly Sunny 66 18.9 36 2.2 33 33 VRB 3 6 30.21 1023 10 16 0.00 0.00
3:54 pm 15:54 Partly Cloudy 68 20 38 3.3 33 33 NW 8 13 30.21 1023 10 16 0.00 0.00
4:54 pm 16:54 Mostly Sunny 65 18.3 38 3.3 37 37 W 6 9 30.20 1023 10 16 0.00 0.00
5:54 pm 17:54 Partly Cloudy 65 18.3 39 3.9 39 39 W 5 7 30.21 1023 10 16 0.00 0.00
6:54 pm 18:54 Mostly Clear 60 15.6 43 6.1 53 53 Calm 30.22 1023 10 16 0.00 0.00
7:54 pm 19:54 Clear 53 11.7 45 7.2 74 74 WSW 3 6 30.23 1024 10 16 0.00 0.00
8:54 pm 20:54 Clear 53 11.7 45 7.2 74 74 Calm 30.24 1024 10 16 0.00 0.00
9:54 pm 21:54 Clear 50 10 44 6.7 80 80 Calm 30.25 1024 10 16 0.00 0.00
10:54 pm 22:54 Clear 48 8.9 43 6.1 83 83 Calm 30.26 1025 10 16 0.00 0.00
11:54 pm 23:54 Clear 49 9.4 45 7.2 86 86 WNW 3 6 30.26 1025 10 16 0.00 0.00

Powered by AerisWeather